Weather History for KTMK - October, 2012

Change the Weather History Date:

Monday, October 22, 2012

  Actual Average (KMMV) Record (KMMV)
Temperature  
Mean Temperature 48 °F 50 °F  
Max Temperature 53 °F 60 °F 83 °F (1929)
Min Temperature 42 °F 40 °F 29 °F (1905)
Degree Days  
Heating Degree Days 18 15  
Month to date heating degree days 260  
Since 1 July heating degree days 476  
Cooling Degree Days 0 0  
Month to date cooling degree days 0  
Year to date cooling degree days 214  
Moisture  
Dew Point 44 °F    
Average Humidity 92    
Maximum Humidity 100    
Minimum Humidity 72    
Precipitation  
Precipitation 0.42 in 0.13 in 2.10 in (1943)
Month to date precipitation 2.02  
Year to date precipitation 25.73  
Sea Level Pressure  
Sea Level Pressure 29.61 in    
Wind  
Wind Speed 3 mph (South)    
Max Wind Speed 12 mph    
Max Gust Speed 17 mph    
T = Trace of Precipitation, MM = Missing Value Source: NWS Daily Summary

Daily Weather History Graph

Daily Weather History Graph

Search for Another Location

Airport or City:

Trip Planner

Search our weather history database for the weather conditions in past years. The results will help you decide how hot, cold, wet, or windy it might be!

Date:

Astronomy

Oct. 22, 2012 Rise Set
Actual Time 8:41 AM MDT 7:16 PM MDT
Civil Twilight 8:11 AM MDT 7:47 PM MDT
Nautical Twilight 7:36 AM MDT 8:21 PM MDT
Astronomical Twilight 7:02 AM MDT 8:55 PM MDT
Moon 3:46 PM MDT (10/22) 1:15 AM MDT (10/22)
Length of Visible Light 11h 35m
Length of Day
10h 35m
First Quarter, 57% of the Moon is Illuminated
Oct 22
First Quarter
Oct 29
Full
Nov 6
Last Quarter
Nov 13
New
Nov 20
First Quarter

Hourly Weather History & Observations

Time (MDT) Temp. Windchill Dew Point Humidity Pressure Visibility Wind Dir Wind Speed Gust Speed Precip Events Conditions
12:15 AM 42.8 °F 41.1 °F 41.0 °F 93% 29.72 in - ESE 3.5 mph - N/A   Unknown
12:35 AM 42.8 °F - 42.8 °F 100% 29.71 in - Calm Calm - N/A   Unknown
12:55 AM 42.8 °F - 42.8 °F 100% 29.71 in - Calm Calm - N/A   Mostly Cloudy
1:15 AM 44.6 °F - 44.6 °F 100% 29.70 in - Calm Calm - N/A   Unknown
1:35 AM 42.8 °F - 42.8 °F 100% 29.69 in - Calm Calm - N/A   Unknown
1:55 AM 42.8 °F - 42.8 °F 100% 29.68 in - Calm Calm - N/A   Mostly Cloudy
2:15 AM 42.8 °F - 42.8 °F 100% 29.66 in - Calm Calm - N/A   Unknown
2:55 AM 42.8 °F - 42.8 °F 100% 29.65 in - Calm Calm - N/A   Unknown
3:15 AM 42.8 °F 40.1 °F 42.8 °F 100% 29.64 in - WSW 4.6 mph - N/A   Unknown
3:35 AM 42.8 °F - 42.8 °F 100% 29.63 in - Calm Calm - N/A   Unknown
3:55 AM 42.8 °F 41.1 °F 42.8 °F 100% 29.62 in - West 3.5 mph - N/A   Unknown
4:15 AM 44.6 °F - 44.6 °F 100% 29.62 in - Calm Calm - N/A   Unknown
4:35 AM 44.6 °F - 44.6 °F 100% 29.61 in - Calm Calm - N/A   Unknown
4:55 AM 44.6 °F - 44.6 °F 100% 29.61 in - Calm Calm - N/A   Unknown
5:15 AM 44.6 °F - 44.6 °F 100% 29.60 in - Calm Calm - 0.01 in   Unknown
5:35 AM 44.6 °F - 44.6 °F 100% 29.59 in - Calm Calm - 0.01 in   Unknown
5:55 AM 44.6 °F - 44.6 °F 100% 29.58 in - Calm Calm - 0.02 in   Overcast
6:15 AM 44.6 °F - 44.6 °F 100% 29.57 in - Calm Calm - N/A   Overcast
6:35 AM 44.6 °F - 44.6 °F 100% 29.57 in - Calm Calm - N/A   Overcast
7:15 AM 44.6 °F - 44.6 °F 100% 29.56 in - Calm Calm - 0.01 in   Unknown
7:35 AM 44.6 °F - 44.6 °F 100% 29.56 in - Calm Calm - 0.01 in   Overcast
7:55 AM 44.6 °F - 44.6 °F 100% 29.56 in - Calm Calm - 0.01 in   Overcast
8:15 AM 44.6 °F - 44.6 °F 100% 29.56 in - Calm Calm - N/A   Unknown
8:35 AM 44.6 °F - 44.6 °F 100% 29.55 in - Calm Calm - N/A   Overcast
8:55 AM 46.4 °F - 46.4 °F 100% 29.55 in - Calm Calm - N/A   Unknown
9:15 AM 46.4 °F 45.2 °F 46.4 °F 100% 29.55 in - WSW 3.5 mph - N/A   Overcast
9:35 AM 46.4 °F 43.5 °F 46.4 °F 100% 29.56 in - WSW 5.8 mph - N/A   Overcast
9:55 AM 46.4 °F - 46.4 °F 100% 29.56 in - Calm Calm - 0.01 in   Overcast
10:15 AM 46.4 °F 43.5 °F 46.4 °F 100% 29.56 in - East 5.8 mph - 0.01 in   Unknown
10:35 AM 46.4 °F 44.3 °F 46.4 °F 100% 29.56 in - ESE 4.6 mph - 0.01 in   Unknown
10:55 AM 46.4 °F 43.5 °F 46.4 °F 100% 29.56 in - ENE 5.8 mph - 0.02 in   Unknown
11:15 AM 48.2 °F - 48.2 °F 100% 29.56 in - East 3.5 mph - 0.01 in   Overcast
11:35 AM 48.2 °F - 46.4 °F 93% 29.56 in - Calm Calm - 0.01 in   Unknown
11:55 AM 48.2 °F - 46.4 °F 93% 29.56 in - Calm Calm - 0.01 in   Overcast
12:15 PM 50.0 °F - 46.4 °F 87% 29.57 in - South 9.2 mph - 0.01 in   Unknown
12:35 PM 50.0 °F - 44.6 °F 82% 29.57 in - South 5.8 mph - 0.02 in   Unknown
12:55 PM 48.2 °F - 44.6 °F 87% 29.57 in - SW 4.6 mph - 0.07 in   Overcast
1:15 PM 48.2 °F - 44.6 °F 87% 29.58 in - SSW 4.6 mph - 0.06 in   Unknown
1:35 PM 48.2 °F - 44.6 °F 87% 29.59 in - South 4.6 mph - 0.12 in   Overcast
1:55 PM 48.2 °F - 46.4 °F 93% 29.58 in - SSE 6.9 mph - 0.13 in   Unknown
2:15 PM 48.2 °F - 44.6 °F 87% 29.58 in - SSE 9.2 mph - 0.02 in   Unknown
2:35 PM 50.0 °F - 46.4 °F 87% 29.58 in - South 8.1 mph - 0.02 in   Unknown
2:55 PM 51.8 °F - 44.6 °F 76% 29.58 in - SSE 10.4 mph - 0.02 in   Mostly Cloudy
3:15 PM 51.8 °F - 44.6 °F 76% 29.58 in - South 6.9 mph - N/A   Mostly Cloudy
3:35 PM 53.6 °F - 46.4 °F 77% 29.57 in - South 10.4 mph - N/A   Overcast
3:55 PM 53.6 °F - 44.6 °F 72% 29.58 in - SSW 10.4 mph - N/A   Overcast
4:15 PM 51.8 °F - 44.6 °F 76% 29.59 in - SSE 10.4 mph - N/A   Overcast
4:35 PM 50.0 °F - 44.6 °F 82% 29.60 in - SW 11.5 mph 17.3 mph 0.02 in   Overcast
4:55 PM 50.0 °F - 44.6 °F 82% 29.61 in - South 8.1 mph - 0.02 in   Overcast
5:15 PM 50.0 °F - 44.6 °F 82% 29.61 in - SSE 5.8 mph - N/A   Mostly Cloudy
5:35 PM 48.2 °F - 42.8 °F 82% 29.61 in - SSE 10.4 mph - N/A   Overcast
5:55 PM 48.2 °F - 44.6 °F 87% 29.62 in - SSE 10.4 mph - N/A   Overcast
6:15 PM 48.2 °F - 44.6 °F 87% 29.62 in - SSE 6.9 mph - N/A   Unknown
6:35 PM 48.2 °F - 44.6 °F 87% 29.62 in - South 4.6 mph - 0.02 in   Unknown
6:55 PM 48.2 °F - 44.6 °F 87% 29.63 in - West 5.8 mph - 0.02 in   Unknown
7:15 PM 46.4 °F 44.3 °F 41.0 °F 81% 29.64 in - WSW 4.6 mph - 0.02 in   Overcast
7:55 PM 46.4 °F - 42.8 °F 87% 29.64 in - Calm Calm - 0.02 in   Unknown
8:15 PM 46.4 °F 42.9 °F 42.8 °F 87% 29.65 in - SE 6.9 mph - N/A   Unknown
8:35 PM 46.4 °F 43.5 °F 42.8 °F 87% 29.65 in - ESE 5.8 mph - N/A   Unknown
8:55 PM 46.4 °F 43.5 °F 42.8 °F 87% 29.65 in - SE 5.8 mph - N/A   Unknown
9:15 PM 44.6 °F 40.7 °F 42.8 °F 93% 29.65 in - SSE 6.9 mph - N/A   Unknown
9:35 PM 44.6 °F - 42.8 °F 93% 29.66 in - Calm Calm - N/A   Mostly Cloudy
9:55 PM 46.4 °F 44.3 °F 42.8 °F 87% 29.66 in - ESE 4.6 mph - N/A   Overcast
10:15 PM 46.4 °F 45.2 °F 44.6 °F 93% 29.67 in - SE 3.5 mph - 0.01 in   Overcast
10:35 PM 46.4 °F - 42.8 °F 87% 29.66 in - Calm Calm - 0.01 in   Unknown
10:55 PM 46.4 °F 45.2 °F 42.8 °F 87% 29.67 in - NE 3.5 mph - 0.01 in   Unknown
11:15 PM 46.4 °F 45.2 °F 44.6 °F 93% 29.68 in - SW 3.5 mph - 0.01 in   Unknown
11:35 PM 46.4 °F 44.3 °F 42.8 °F 87% 29.68 in - West 4.6 mph - 0.02 in   Unknown
11:55 PM 44.6 °F 41.4 °F 41.0 °F 87% 29.70 in - SW 5.8 mph 16.1 mph 0.06 in   Overcast